Hourly Weather Barmaky

Today, 30 September, Wednesday

Time Temperature Precipitation Wind Pressure Humidity
00:00 +14°C° 0.5 mm 4 mps 735 mmHg 93%
01:00 +14°C° 0.5 mm 5 mps 735 mmHg 93%
02:00 +14°C° 0 mm 5 mps 735 mmHg 94%
03:00 +14°C° 0.2 mm 5 mps 734 mmHg 93%
04:00 +14°C° 0.2 mm 5 mps 734 mmHg 93%
05:00 +14°C° 0.2 mm 6 mps 733 mmHg 92%
06:00 +13°C° 1.7 mm 6 mps 733 mmHg 93%
07:00 +13°C° 1.7 mm 6 mps 734 mmHg 93%
08:00 +13°C° 0 mm 6 mps 734 mmHg 94%
09:00 +11°C° 1.3 mm 6 mps 734 mmHg 93%
10:00 +11°C° 1.3 mm 6 mps 733 mmHg 92%
11:00 +12°C° 1.3 mm 5 mps 733 mmHg 91%
12:00 +12°C° 0.1 mm 5 mps 734 mmHg 91%
13:00 +13°C° 0.1 mm 5 mps 734 mmHg 90%
14:00 +13°C° 0.1 mm 5 mps 734 mmHg 90%
15:00 +13°C° 0 mm 5 mps 734 mmHg 90%
16:00 +13°C° 0 mm 5 mps 734 mmHg 91%
17:00 +13°C° 0 mm 5 mps 734 mmHg 91%
18:00 +13°C° 0.1 mm 5 mps 734 mmHg 92%
19:00 +12°C° 0.1 mm 4 mps 735 mmHg 93%
20:00 +12°C° 0.1 mm 4 mps 735 mmHg 93%
21:00 +12°C° 0 mm 4 mps 735 mmHg 93%
22:00 +12°C° 0 mm 4 mps 735 mmHg 94%
23:00 +12°C° 0 mm 3 mps 735 mmHg 94%

Tomorrow, 1 October, Thursday

Time Temperature Precipitation Wind Pressure Humidity
00:00 +12°C° 0.1 mm 3 mps 734 mmHg 95%
01:00 +11°C° 0.1 mm 3 mps 734 mmHg 95%
02:00 +12°C° 0.1 mm 2 mps 734 mmHg 96%
03:00 +12°C° 1.7 mm 2 mps 734 mmHg 96%
04:00 +12°C° 1.7 mm 2 mps 733 mmHg 97%
05:00 +12°C° 1.7 mm 2 mps 733 mmHg 97%
06:00 +12°C° 1.1 mm 2 mps 733 mmHg 97%
07:00 +13°C° 1.1 mm 2 mps 733 mmHg 97%
08:00 +13°C° 1.1 mm 2 mps 733 mmHg 96%
09:00 +13°C° 0.3 mm 3 mps 734 mmHg 91%
10:00 +13°C° 0.3 mm 4 mps 734 mmHg 86%
11:00 +14°C° 0.3 mm 4 mps 735 mmHg 81%
12:00 +15°C° 0.2 mm 5 mps 735 mmHg 76%
13:00 +15°C° 0.2 mm 6 mps 735 mmHg 71%
14:00 +16°C° 0.2 mm 7 mps 735 mmHg 66%
15:00 +15°C° 0.1 mm 6 mps 736 mmHg 69%
16:00 +15°C° 0.1 mm 5 mps 736 mmHg 71%
17:00 +14°C° 0.1 mm 3 mps 736 mmHg 74%
18:00 +14°C° 0.1 mm 3 mps 736 mmHg 78%
19:00 +13°C° 0.1 mm 3 mps 736 mmHg 81%
20:00 +12°C° 0.1 mm 3 mps 736 mmHg 85%
21:00 +12°C° 0.1 mm 3 mps 736 mmHg 88%
22:00 +12°C° 0.1 mm 3 mps 736 mmHg 91%
23:00 +12°C° 0.1 mm 3 mps 736 mmHg 94%

Day after tomorrow, 2 October, Friday

Time Temperature Precipitation Wind Pressure Humidity
00:00 +12°C° 0.3 mm 3 mps 736 mmHg 94%
01:00 +12°C° 0.3 mm 3 mps 736 mmHg 95%
02:00 +12°C° 0.3 mm 3 mps 736 mmHg 95%
03:00 +12°C° 0.2 mm 3 mps 736 mmHg 95%
04:00 +12°C° 0.2 mm 3 mps 736 mmHg 95%
05:00 +12°C° 0.2 mm 3 mps 736 mmHg 95%
06:00 +12°C° 0.1 mm 3 mps 736 mmHg 94%
07:00 +12°C° 0.1 mm 3 mps 737 mmHg 92%
08:00 +12°C° 0.1 mm 4 mps 737 mmHg 91%
09:00 +12°C° 0.1 mm 3 mps 737 mmHg 90%
10:00 +13°C° 0.1 mm 3 mps 737 mmHg 89%
11:00 +14°C° 0.1 mm 2 mps 737 mmHg 89%
12:00 +14°C° 0.2 mm 2 mps 737 mmHg 88%
13:00 +14°C° 0.2 mm 1 mps 738 mmHg 87%
14:00 +14°C° 0.2 mm 1 mps 738 mmHg 87%
15:00 +14°C° 0.1 mm 1 mps 738 mmHg 87%
16:00 +14°C° 0.1 mm 1 mps 738 mmHg 86%
17:00 +14°C° 0.1 mm 1 mps 738 mmHg 86%
18:00 +14°C° 0 mm 2 mps 738 mmHg 88%
19:00 +13°C° 0 mm 2 mps 739 mmHg 89%
20:00 +12°C° 0 mm 2 mps 739 mmHg 91%
21:00 +12°C° 0 mm 2 mps 739 mmHg 91%
22:00 +12°C° 0 mm 2 mps 739 mmHg 90%
23:00 +12°C° 0 mm 2 mps 739 mmHg 90%

3 October, Saturday

Time Temperature Precipitation Wind Pressure Humidity
00:00 +12°C° 0 mm 2 mps 739 mmHg 90%
01:00 +12°C° 0 mm 2 mps 739 mmHg 89%
02:00 +12°C° 0 mm 2 mps 739 mmHg 89%
03:00 +12°C° 0 mm 2 mps 739 mmHg 89%
04:00 +12°C° 0 mm 2 mps 740 mmHg 89%
05:00 +12°C° 0 mm 2 mps 740 mmHg 90%
06:00 +13°C° 0.2 mm 2 mps 740 mmHg 91%
07:00 +13°C° 0.2 mm 2 mps 740 mmHg 92%
08:00 +13°C° 0.2 mm 2 mps 740 mmHg 93%
09:00 +13°C° 0.2 mm 3 mps 740 mmHg 91%
10:00 +13°C° 0.2 mm 3 mps 740 mmHg 89%
11:00 +14°C° 0.2 mm 4 mps 740 mmHg 87%
12:00 +15°C° 0.1 mm 4 mps 740 mmHg 84%
13:00 +15°C° 0.1 mm 5 mps 740 mmHg 82%
14:00 +16°C° 0.1 mm 5 mps 740 mmHg 80%
15:00 +16°C° 0 mm 5 mps 740 mmHg 80%
16:00 +15°C° 0 mm 5 mps 739 mmHg 81%
17:00 +15°C° 0 mm 4 mps 739 mmHg 82%
18:00 +15°C° 0 mm 4 mps 739 mmHg 83%
19:00 +15°C° 0 mm 4 mps 740 mmHg 83%
20:00 +14°C° 0 mm 4 mps 740 mmHg 84%
21:00 +14°C° 0 mm 4 mps 739 mmHg 83%
22:00 +14°C° 0 mm 4 mps 739 mmHg 83%
23:00 +14°C° 0 mm 3 mps 739 mmHg 82%

4 October, Sunday

Time Temperature Precipitation Wind Pressure Humidity
00:00 +14°C° 0 mm 3 mps 739 mmHg 81%
01:00 +14°C° 0 mm 3 mps 739 mmHg 81%
02:00 +14°C° 0 mm 3 mps 739 mmHg 80%
03:00 +14°C° 0 mm 4 mps 738 mmHg 79%
04:00 +14°C° 0 mm 4 mps 738 mmHg 78%
05:00 +14°C° 0 mm 4 mps 738 mmHg 76%
06:00 +14°C° 0 mm 4 mps 738 mmHg 77%
07:00 +14°C° 0 mm 4 mps 738 mmHg 78%
08:00 +14°C° 0 mm 5 mps 738 mmHg 80%
09:00 +16°C° 0 mm 5 mps 738 mmHg 76%
10:00 +17°C° 0 mm 5 mps 738 mmHg 72%
11:00 +20°C° 0 mm 5 mps 738 mmHg 68%
12:00 +21°C° 0 mm 5 mps 738 mmHg 66%
13:00 +22°C° 0 mm 5 mps 738 mmHg 64%
14:00 +23°C° 0 mm 6 mps 738 mmHg 61%
15:00 +22°C° 0.1 mm 5 mps 738 mmHg 65%
16:00 +21°C° 0.1 mm 3 mps 738 mmHg 69%
17:00 +21°C° 0.1 mm 2 mps 738 mmHg 73%
18:00 +20°C° 0 mm 2 mps 738 mmHg 76%
19:00 +19°C° 0 mm 3 mps 738 mmHg 78%
20:00 +18°C° 0 mm 3 mps 738 mmHg 80%
21:00 +18°C° 0 mm 3 mps 738 mmHg 81%
22:00 +18°C° 0 mm 2 mps 738 mmHg 81%
23:00 +17°C° 0 mm 2 mps 738 mmHg 81%

5 October, Monday

Time Temperature Precipitation Wind Pressure Humidity
00:00 +17°C° 0 mm 2 mps 738 mmHg 81%
01:00 +17°C° 0 mm 3 mps 737 mmHg 81%
02:00 +17°C° 0 mm 3 mps 737 mmHg 80%
03:00 +17°C° 0.1 mm 3 mps 737 mmHg 82%
04:00 +16°C° 0.1 mm 3 mps 737 mmHg 83%
05:00 +16°C° 0.1 mm 3 mps 737 mmHg 85%
06:00 +15°C° 0.1 mm 4 mps 737 mmHg 86%
07:00 +17°C° 0.1 mm 4 mps 736 mmHg 87%
08:00 +16°C° 0.1 mm 5 mps 736 mmHg 88%
09:00 +17°C° 0.1 mm 5 mps 736 mmHg 84%
10:00 +19°C° 0.1 mm 5 mps 736 mmHg 80%
11:00 +20°C° 0.1 mm 6 mps 736 mmHg 75%
12:00 +22°C° 0 mm 6 mps 736 mmHg 72%
13:00 +23°C° 0 mm 6 mps 736 mmHg 69%
14:00 +24°C° 0 mm 6 mps 736 mmHg 66%
15:00 +23°C° 0 mm 5 mps 735 mmHg 69%
16:00 +22°C° 0 mm 4 mps 735 mmHg 71%
17:00 +22°C° 0 mm 3 mps 735 mmHg 74%
18:00 +21°C° 0 mm 3 mps 735 mmHg 76%
19:00 +20°C° 0 mm 3 mps 735 mmHg 78%
20:00 +19°C° 0 mm 3 mps 735 mmHg 80%
21:00 +19°C° 0 mm 4 mps 735 mmHg 78%
22:00 +19°C° 0 mm 4 mps 735 mmHg 76%
23:00 +19°C° 0 mm 4 mps 735 mmHg 74%
Show more